| time (UTC) | temp F | wind direction | speed MPH | gust MPH | rain 1hr in | rain 24hr in | rain mn in | humidity % | barometer mb |
| 20260507204526 | 63 | 25 | 2.0 | 0.0 | 0.00 | 0.00 | 0.00 | 45 | 1005.2 |
| 20260507203026 | 64 | 258 | 3.0 | 0.0 | 0.00 | 0.00 | 0.00 | 47 | 1005.2 |
| 20260507201529 | 64 | 204 | 4.0 | 0.0 | 0.00 | 0.00 | 0.00 | 49 | 1005.2 |
| 20260507200038 | 64 | 331 | 4.0 | 0.0 | 0.00 | 0.00 | 0.00 | 49 | 1005.3 |
| 20260507194523 | 65 | 329 | 5.0 | 0.0 | 0.00 | 0.00 | 0.00 | 52 | 1005.6 |
| 20260507193029 | 65 | 330 | 3.0 | 0.0 | 0.00 | 0.00 | 0.00 | 49 | 1005.7 |
| 20260507191526 | 64 | 300 | 2.0 | 0.0 | 0.00 | 0.00 | 0.00 | 52 | 1006.0 |
| 20260507190030 | 64 | 109 | 4.0 | 0.0 | 0.00 | 0.00 | 0.00 | 48 | 1006.2 |
| 20260507184519 | 64 | 359 | 5.0 | 0.0 | 0.00 | 0.00 | 0.00 | 47 | 1006.3 |
| 20260507183034 | 64 | 350 | 4.0 | 0.0 | 0.00 | 0.00 | 0.00 | 45 | 1006.3 |
| 20260507181517 | 64 | 180 | 3.0 | 0.0 | 0.00 | 0.00 | 0.00 | 45 | 1006.6 |
| 20260507180015 | 65 | 359 | 4.0 | 0.0 | 0.00 | 0.00 | 0.00 | 47 | 1006.7 |
| 20260507174515 | 64 | 268 | 4.0 | 0.0 | 0.00 | 0.00 | 0.00 | 50 | 1007.1 |
| 20260507173016 | 64 | 214 | 5.0 | 0.0 | 0.00 | 0.00 | 0.00 | 51 | 1007.3 |
| 20260507171505 | 64 | 333 | 6.0 | 0.0 | 0.00 | 0.00 | 0.00 | 52 | 1007.4 |
| 20260507170001 | 63 | 359 | 5.0 | 0.0 | 0.00 | 0.00 | 0.00 | 48 | 1007.7 |
| 20260507164606 | 63 | 305 | 7.0 | 0.0 | 0.00 | 0.00 | 0.00 | 48 | 1007.9 |
| 20260507163053 | 62 | 316 | 5.0 | 0.0 | 0.00 | 0.00 | 0.00 | 55 | 1008.2 |
| 20260507161604 | 61 | 274 | 4.0 | 0.0 | 0.00 | 0.00 | 0.00 | 50 | 1008.2 |
| 20260507160101 | 61 | 297 | 6.0 | 0.0 | 0.00 | 0.00 | 0.00 | 50 | 1008.5 |
| 20260507154541 | 62 | 314 | 6.0 | 0.0 | 0.00 | 0.00 | 0.00 | 56 | 1008.4 |
| 20260507153036 | 60 | 305 | 6.0 | 0.0 | 0.00 | 0.00 | 0.00 | 58 | 1008.8 |
| 20260507151531 | 59 | 298 | 4.0 | 0.0 | 0.00 | 0.00 | 0.00 | 60 | 1008.9 |
| 20260507150029 | 58 | 311 | 6.0 | 0.0 | 0.00 | 0.00 | 0.00 | 58 | 1009.4 |
| 20260507144541 | 55 | 295 | 4.0 | 0.0 | 0.00 | 0.00 | 0.00 | 66 | 1009.6 |
| 20260507143029 | 54 | 335 | 3.0 | 0.0 | 0.00 | 0.00 | 0.00 | 64 | 1009.7 |
| 20260507141528 | 53 | 290 | 6.0 | 0.0 | 0.00 | 0.00 | 0.00 | 65 | 1009.8 |
| 20260507140029 | 53 | 288 | 4.0 | 0.0 | 0.00 | 0.00 | 0.00 | 68 | 1010.1 |
| 20260507134525 | 53 | 330 | 5.0 | 0.0 | 0.00 | 0.00 | 0.00 | 69 | 1010.3 |
| 20260507133024 | 52 | 325 | 6.0 | 0.0 | 0.00 | 0.00 | 0.00 | 67 | 1010.1 |
| 20260507131528 | 52 | 302 | 5.0 | 0.0 | 0.00 | 0.00 | 0.00 | 67 | 1010.2 |
| 20260507130030 | 53 | 353 | 3.0 | 0.0 | 0.00 | 0.00 | 0.00 | 68 | 1010.2 |
| 20260507124522 | 52 | 354 | 4.0 | 0.0 | 0.00 | 0.00 | 0.00 | 69 | 1010.4 |
| 20260507123029 | 52 | 274 | 4.0 | 0.0 | 0.00 | 0.00 | 0.00 | 65 | 1010.1 |
| 20260507121521 | 52 | 323 | 4.0 | 0.0 | 0.00 | 0.00 | 0.00 | 67 | 1010.0 |
| 20260507120019 | 52 | 274 | 1.0 | 0.0 | 0.00 | 0.00 | 0.00 | 68 | 1010.0 |
| 20260507114519 | 52 | 323 | 3.0 | 0.0 | 0.00 | 0.00 | 0.00 | 66 | 1009.9 |
| 20260507113026 | 52 | 333 | 4.0 | 0.0 | 0.00 | 0.00 | 0.00 | 67 | 1009.5 |
| 20260507111516 | 52 | 326 | 5.0 | 0.0 | 0.00 | 0.00 | 0.00 | 65 | 1009.7 |
| 20260507110014 | 52 | 307 | 3.0 | 0.0 | 0.00 | 0.00 | 0.00 | 65 | 1009.7 |
| 20260507104511 | 52 | 347 | 2.0 | 0.0 | 0.00 | 0.00 | 0.00 | 68 | 1009.4 |
| 20260507103010 | 52 | 359 | 3.0 | 0.0 | 0.00 | 0.00 | 0.00 | 69 | 1009.2 |
| 20260507101514 | 53 | 4 | 1.0 | 0.0 | 0.00 | 0.00 | 0.00 | 70 | 1008.9 |
| 20260507100007 | 53 | 342 | 2.0 | 0.0 | 0.00 | 0.00 | 0.00 | 72 | 1008.9 |
| 20260507094506 | 53 | 69 | 2.0 | 0.0 | 0.00 | 0.00 | 0.00 | 73 | 1008.8 |
| 20260507093003 | 53 | 341 | 3.0 | 0.0 | 0.00 | 0.00 | 0.00 | 74 | 1008.7 |
| 20260507091503 | 53 | 347 | 3.0 | 0.0 | 0.00 | 0.00 | 0.00 | 76 | 1008.5 |
| 20260507090000 | 53 | 21 | 0.0 | 0.0 | 0.00 | 0.00 | 0.00 | 80 | 1008.6 |
| 20260507084601 | 53 | 357 | 1.0 | 0.0 | 0.00 | 0.00 | 0.00 | 78 | 1008.4 |
| 20260507083059 | 54 | 274 | 2.0 | 0.0 | 0.00 | 0.00 | 0.00 | 78 | 1008.3 |
| 20260507081557 | 54 | 339 | 2.0 | 0.0 | 0.00 | 0.00 | 0.00 | 78 | 1008.3 |
| 20260507080056 | 54 | 330 | 5.0 | 0.0 | 0.00 | 0.00 | 0.00 | 78 | 1007.8 |
| 20260507074559 | 54 | 354 | 4.0 | 0.0 | 0.00 | 0.00 | 0.00 | 78 | 1007.8 |
| 20260507073055 | 54 | 328 | 5.0 | 0.0 | 0.00 | 0.00 | 0.00 | 78 | 1007.8 |
| 20260507071554 | 54 | 325 | 5.0 | 0.0 | 0.00 | 0.00 | 0.00 | 78 | 1007.7 |
| 20260507070054 | 54 | 328 | 5.0 | 0.0 | 0.00 | 0.00 | 0.00 | 78 | 1007.7 |
| 20260507064606 | 54 | 310 | 4.0 | 0.0 | 0.00 | 0.00 | 0.00 | 78 | 1007.8 |
| 20260507063054 | 54 | 1 | 5.0 | 0.0 | 0.00 | 0.00 | 0.00 | 78 | 1008.2 |
| 20260507061548 | 55 | 314 | 6.0 | 0.0 | 0.00 | 0.00 | 0.00 | 78 | 1008.3 |
| 20260507060052 | 55 | 321 | 5.0 | 0.0 | 0.00 | 0.00 | 0.00 | 80 | 1008.2 |
| 20260507054544 | 55 | 299 | 4.0 | 0.0 | 0.00 | 0.00 | 0.00 | 81 | 1008.2 |
| 20260507053042 | 55 | 295 | 3.0 | 0.0 | 0.00 | 0.00 | 0.00 | 83 | 1007.8 |
| 20260507051538 | 56 | 330 | 3.0 | 0.0 | 0.00 | 0.00 | 0.00 | 83 | 1008.1 |
| 20260507050040 | 56 | 317 | 5.0 | 0.0 | 0.00 | 0.00 | 0.00 | 82 | 1008.2 |
| 20260507044535 | 56 | 283 | 4.0 | 0.0 | 0.00 | 0.00 | 0.00 | 82 | 1007.8 |
| 20260507043033 | 56 | 315 | 4.0 | 0.0 | 0.00 | 0.00 | 0.00 | 82 | 1008.2 |
| 20260507041546 | 56 | 295 | 3.0 | 0.0 | 0.00 | 0.00 | 0.00 | 82 | 1007.9 |
| 20260507040027 | 57 | 283 | 6.0 | 0.0 | 0.00 | 0.00 | 0.00 | 81 | 1007.9 |
| 20260507034526 | 57 | 313 | 9.0 | 0.0 | 0.00 | 0.00 | 0.01 | 80 | 1007.8 |
| 20260507033021 | 58 | 263 | 6.0 | 0.0 | 0.00 | 0.00 | 0.01 | 80 | 1007.4 |
| 20260507031518 | 58 | 312 | 7.0 | 0.0 | 0.00 | 0.00 | 0.01 | 79 | 1007.6 |
| 20260507030017 | 58 | 336 | 9.0 | 0.0 | 0.00 | 0.00 | 0.01 | 80 | 1007.6 |
| 20260507024514 | 59 | 333 | 6.0 | 0.0 | 0.00 | 0.00 | 0.01 | 81 | 1007.1 |
| 20260507023011 | 59 | 314 | 7.0 | 0.0 | 0.00 | 0.00 | 0.01 | 82 | 1007.2 |
| 20260507021509 | 59 | 316 | 6.0 | 0.0 | 0.00 | 0.00 | 0.01 | 83 | 1006.8 |
| 20260507020009 | 60 | 330 | 6.0 | 0.0 | 0.00 | 0.00 | 0.01 | 83 | 1006.9 |
| 20260507014517 | 61 | 309 | 5.0 | 0.0 | 0.00 | 0.00 | 0.01 | 85 | 1007.0 |
| 20260507013024 | 61 | 290 | 4.0 | 0.0 | 0.00 | 0.00 | 0.01 | 85 | 1006.7 |
| 20260507011506 | 61 | 300 | 6.0 | 0.0 | 0.00 | 0.00 | 0.01 | 85 | 1006.6 |
| 20260507010006 | 62 | 23 | 5.0 | 0.0 | 0.00 | 0.00 | 0.01 | 87 | 1006.7 |
| 20260507004504 | 62 | 327 | 7.0 | 0.0 | 0.00 | 0.00 | 0.01 | 87 | 1006.6 |
| 20260507003004 | 63 | 302 | 7.0 | 0.0 | 0.00 | 0.00 | 0.01 | 86 | 1006.6 |
| 20260507001503 | 64 | 297 | 6.0 | 0.0 | 0.00 | 0.00 | 0.01 | 85 | 1006.3 |
| 20260507000012 | 65 | 287 | 6.0 | 0.0 | 0.00 | 0.00 | 0.01 | 86 | 1006.2 |
| 20260506234504 | 65 | 300 | 5.0 | 0.0 | 0.00 | 0.00 | 0.01 | 86 | 1006.0 |
| 20260506233003 | 66 | 244 | 2.0 | 0.0 | 0.00 | 0.00 | 0.01 | 86 | 1005.5 |
| 20260506231502 | 67 | 245 | 2.0 | 0.0 | 0.00 | 0.00 | 0.01 | 85 | 1005.3 |
| 20260506230001 | 67 | 194 | 0.0 | 0.0 | 0.00 | 0.00 | 0.01 | 84 | 1004.9 |
| 20260506224501 | 67 | 241 | 0.0 | 0.0 | 0.00 | 0.00 | 0.01 | 85 | 1005.0 |
| 20260506223004 | 67 | 241 | 0.0 | 0.0 | 0.00 | 0.00 | 0.01 | 85 | 1004.9 |
| 20260506221604 | 67 | 241 | 1.0 | 0.0 | 0.00 | 0.00 | 0.01 | 86 | 1004.9 |
| 20260506220100 | 67 | 240 | 1.0 | 0.0 | 0.00 | 0.00 | 0.01 | 85 | 1004.7 |
| 20260506214610 | 67 | 250 | 0.0 | 0.0 | 0.00 | 0.00 | 0.01 | 84 | 1004.8 |
| 20260506213059 | 67 | 222 | 2.0 | 0.0 | 0.00 | 0.00 | 0.01 | 84 | 1004.8 |
| 20260506211559 | 67 | 193 | 3.0 | 0.0 | 0.00 | 0.00 | 0.01 | 82 | 1004.5 |
| 20260506210116 | 68 | 230 | 3.0 | 0.0 | 0.00 | 0.00 | 0.01 | 81 | 1004.2 |